Wind_Speed
14 14 13 13 13 13 13 13 14 15 17 18 20 21 22 23 24 25 26 26 27 27 27 27 27 27 26 26 26 26 26 26 27 27 27 27 26 26 25 25 24 24 24 24
13 13 13 13 12 13 14 14 16 17 19 19 21 22 22 23 24 26 27 27 27 27 26 26 26 26 26 26 26 25 25 25 26 26 25 24 24 23 23 22 22 21 21 21
12 12 12 12 12 13 13 14 16 17 19 19 20 21 23 24 25 26 26 26 26 25 25 25 25 24 24 24 24 23 23 23 23 22 22 22 21 21 21 20 20 19 19 19
12 12 12 11 11 11 12 14 15 17 18 19 20 22 23 24 25 25 25 25 24 24 23 23 23 22 22 22 22 22 21 21 20 20 19 19 18 18 18 17 17 16 17 17
11 11 11 11 11 12 13 14 16 17 18 20 21 23 23 24 24 24 23 23 22 21 21 21 21 21 20 20 19 19 18 18 18 17 16 15 14 14 14 14 14 14 14 15
9 10 10 12 12 12 13 15 16 17 19 20 22 22 23 23 22 22 21 20 20 19 19 19 19 18 17 16 16 16 15 14 13 12 11 11 11 11 11 11 11 11 11 11
9 9 10 10 10 11 13 15 16 17 19 20 21 22 22 22 21 20 18 18 18 17 17 16 16 14 14 13 13 12 12 11 10 9 8 8 8 8 9 9 8 8 9 10
9 9 10 10 10 11 13 14 15 17 18 20 21 20 20 19 18 17 16 16 15 14 13 13 12 11 11 10 10 9 8 7 7 6 6 6 6 6 6 6 5 6 6 6
9 10 10 10 10 11 12 14 15 16 18 19 19 18 17 16 16 15 14 14 13 12 10 10 10 9 9 8 8 7 6 6 6 5 4 4 3 4 4 3 3 3 3 3
9 9 10 10 10 11 12 13 15 16 17 17 17 16 15 14 14 13 13 12 10 9 7 7 7 7 7 7 6 7 6 5 5 4 4 3 3 2 1 0 1 0 0 0
7 8 9 9 10 10 11 13 14 15 16 15 14 14 13 12 12 12 11 10 9 8 7 7 7 7 7 7 7 7 6 6 6 6 5 5 5 5 5 4 4 4 4 4
7 7 8 8 9 10 12 13 14 15 14 14 13 12 11 11 11 10 10 9 8 8 8 7 7 7 7 8 8 8 8 8 8 8 8 8 9 9 9 8 8 8 7 7
7 7 7 8 9 10 11 12 13 14 13 12 11 11 11 10 10 9 9 8 8 8 8 8 8 8 8 9 10 10 11 11 11 11 11 11 12 12 11 11 11 11 10 10
7 7 7 8 8 9 10 11 12 11 11 10 10 10 10 10 9 9 8 8 8 9 9 9 9 9 10 10 11 12 12 13 13 13 13 13 13 13 12 12 12 12 12 13
8 8 7 8 8 8 9 10 10 10 9 9 9 8 8 8 8 8 8 8 9 9 9 10 10 11 11 12 12 13 13 14 14 14 14 14 14 13 13 13 13 13 14 14
8 7 7 7 7 8 8 9 9 8 8 8 8 8 7 7 8 8 8 9 9 10 10 11 12 12 12 13 13 14 14 15 15 15 15 14 15 14 14 14 15 15 15 15
8 7 6 6 6 7 7 7 7 7 7 7 7 7 7 7 7 8 8 9 10 10 10 11 12 12 13 13 14 14 15 15 15 16 16 16 16 16 16 16 16 16 15 15
8 7 7 6 5 5 5 6 6 6 6 6 6 6 6 6 7 7 8 9 10 10 10 11 12 12 13 14 14 15 16 16 16 16 16 16 16 16 17 17 16 16 15 15
9 8 7 6 5 4 4 4 4 5 5 5 6 6 6 6 7 7 8 9 10 10 11 11 12 12 12 13 14 14 15 15 15 15 16 16 16 16 16 16 16 15 15 14
9 9 7 6 5 4 4 3 3 3 4 4 4 4 5 6 7 7 8 8 9 9 10 11 11 11 11 12 12 13 14 14 14 14 15 15 15 15 15 15 14 14 14 13
10 9 9 8 7 5 4 3 3 2 2 3 3 3 4 5 6 6 7 7 8 8 9 10 10 10 11 11 11 12 12 13 13 14 14 13 14 13 13 13 13 13 13 12
11 10 10 9 9 7 6 5 3 3 2 1 1 2 3 4 4 5 6 7 7 8 8 9 9 9 10 10 10 11 11 11 12 12 12 12 12 12 12 12 12 12 12 11
12 11 11 11 10 9 7 6 4 3 2 2 2 2 2 3 3 4 4 5 6 7 7 7 8 8 8 8 9 9 9 10 10 10 10 10 10 10 10 10 10 10 10 10
14 13 13 12 12 11 9 7 6 5 4 4 4 3 3 3 3 3 3 4 5 5 5 5 6 6 6 6 7 7 8 8 8 8 8 8 8 8 9 9 9 9 9 9
15 15 15 14 14 13 12 10 8 7 6 6 6 5 5 4 4 4 4 4 4 4 4 4 4 4 5 5 5 6 6 6 6 6 6 6 6 6 6 7 7 7 7 8
17 17 17 16 16 15 14 12 11 10 9 8 8 7 7 6 6 5 5 4 4 4 4 4 4 4 4 4 4 4 4 4 4 4 4 4 4 4 5 5 6 6 7 8
20 19 18 18 17 17 16 15 14 13 12 10 10 10 9 9 8 7 7 6 5 5 4 4 4 3 3 3 3 2 2 2 2 2 2 2 3 3 4 5 6 7 7 8
Wind_Direction
224 228 234 243 250 258 262 267 274 280 284 288 290 293 294 295 296 296 297 297 298 298 298 297 296 295 294 294 294 292 290 288 288 287 286 284 283 281 279 278 276 274 272 269
231 233 239 247 253 260 267 273 278 283 289 291 293 295 296 297 297 298 299 299 300 301 300 297 296 295 295 295 294 293 292 290 290 289 287 285 283 281 279 278 275 274 271 269
233 236 243 252 257 265 272 277 284 288 293 295 295 297 299 300 300 300 301 301 301 301 299 297 296 295 295 295 295 294 293 293 292 289 288 285 281 279 278 277 275 273 271 269
234 237 245 251 260 271 278 284 288 291 295 299 301 302 303 303 303 302 303 302 301 301 299 298 298 299 298 296 295 295 295 294 291 290 288 284 279 279 278 278 274 271 271 270
234 241 250 257 265 273 282 288 292 295 299 303 304 305 306 306 306 305 304 303 302 302 302 301 301 301 299 298 297 298 296 294 293 291 288 284 281 278 277 276 275 274 272 272
235 242 252 261 269 276 286 293 297 300 303 306 306 308 310 309 308 307 306 305 306 306 304 303 303 303 301 300 299 300 301 301 299 296 292 286 279 276 278 277 273 272 271 273
240 249 257 266 276 283 290 296 301 303 305 307 309 311 312 312 313 312 311 310 309 309 308 308 308 309 308 306 304 304 306 307 305 304 302 296 289 280 279 278 272 270 273 274
244 249 257 271 280 286 293 300 303 306 308 310 312 313 315 317 318 318 318 318 318 316 315 316 318 321 321 317 315 314 316 319 320 318 311 300 295 286 284 279 277 276 277 276
242 251 263 275 285 290 296 302 307 310 312 313 315 317 319 322 324 326 327 328 328 324 322 323 325 327 330 330 333 337 340 338 335 333 330 321 307 294 290 285 280 278 276 278
247 256 265 278 291 299 302 307 311 315 318 320 321 323 325 327 329 331 333 335 339 341 340 340 343 347 353 354 1 4 2 4 7 12 11 13 11 11 25 61 34 360 306 291
254 263 274 285 296 304 310 313 317 319 322 326 327 329 332 335 337 339 345 352 359 5 7 10 14 18 20 19 19 25 34 39 43 46 46 51 63 71 80 85 90 87 89 91
259 272 285 294 299 307 313 317 321 323 326 328 328 331 335 338 341 345 352 2 12 18 23 28 34 36 35 35 40 49 55 58 61 68 69 70 73 78 79 80 81 82 86 86
262 278 290 297 304 311 316 319 322 327 330 333 336 339 342 346 350 357 5 16 25 32 40 46 51 52 52 59 61 66 68 69 71 75 76 77 77 79 80 80 79 81 82 83
265 277 288 297 305 313 320 323 325 331 336 339 343 347 351 357 5 14 25 34 42 50 55 58 61 64 68 72 72 73 73 74 77 79 81 80 79 79 79 80 80 81 83 85
265 273 282 293 302 312 321 328 334 339 344 345 349 353 357 6 17 28 39 47 54 61 65 68 71 75 77 78 78 78 77 78 79 81 82 81 80 81 82 83 84 85 85 85
264 269 279 290 302 314 323 328 334 341 347 352 358 6 16 26 35 43 51 59 66 72 74 75 77 80 80 80 80 79 80 80 80 80 80 81 81 84 85 85 87 87 86 86
257 260 271 284 300 315 326 333 338 343 352 2 10 21 32 42 50 57 65 72 77 81 82 81 82 81 81 82 82 83 83 83 83 83 82 82 83 86 85 86 86 85 84 83
253 259 266 277 292 309 326 337 346 354 7 15 23 32 42 55 63 70 77 82 84 85 87 87 87 85 84 84 85 86 86 86 85 86 85 83 84 86 86 84 83 83 82 81
247 252 258 264 268 283 307 329 352 7 17 26 34 42 55 68 76 79 83 88 89 90 90 90 89 89 87 87 88 88 87 85 85 86 86 85 85 86 86 84 83 81 80 78
241 243 246 247 252 260 274 300 334 3 17 27 39 54 73 79 82 84 87 91 92 93 92 91 91 91 89 89 89 88 87 87 87 88 88 86 86 86 85 83 81 79 76 75
238 237 239 241 244 246 251 267 291 315 351 25 49 76 89 89 87 87 88 91 95 98 97 95 95 95 94 94 92 90 89 88 88 88 88 86 86 85 83 81 78 76 74 71
236 235 237 237 237 238 240 248 266 283 295 310 94 108 108 104 96 91 89 93 100 104 105 103 100 99 98 95 93 92 91 91 91 90 89 88 86 83 81 78 75 72 69 65
238 235 233 233 233 231 233 241 252 262 255 230 199 165 147 131 117 105 103 104 106 108 109 108 107 103 100 98 96 95 94 94 93 92 90 88 85 82 79 75 71 66 62 58
235 231 231 230 229 229 232 238 243 246 238 222 210 201 188 170 153 137 128 124 121 119 117 115 112 108 105 102 99 99 99 97 94 91 89 86 82 78 74 69 64 59 54 48
233 230 229 228 229 229 231 234 237 240 239 229 220 215 209 197 182 169 159 150 144 139 135 131 125 118 114 111 107 105 105 102 98 93 87 81 76 70 63 56 50 44 38 32
233 231 230 230 230 231 233 234 234 235 234 229 224 219 214 208 201 193 186 180 172 165 159 152 145 138 132 128 122 116 112 107 99 90 81 71 63 53 43 33 25 20 16 13
233 231 231 231 231 232 233 233 232 232 231 229 226 223 221 218 216 214 210 204 199 196 194 189 182 174 166 159 152 141 128 112 90 67 45 31 22 14 7 3 0 359 358 356
Height
5796 5797 5798 5800 5801 5801 5801 5802 5801 5800 5798 5796 5793 5791 5788 5786 5783 5780 5777 5774 5771 5767 5764 5761 5758 5755 5752 5750 5747 5745 5743 5741 5738 5737 5735 5734 5732 5731 5730 5729 5729 5728 5728 5728
5793 5794 5795 5796 5797 5797 5797 5797 5796 5795 5793 5790 5788 5785 5783 5780 5777 5773 5770 5767 5763 5760 5757 5754 5751 5748 5745 5742 5740 5737 5735 5733 5731 5729 5728 5726 5725 5724 5723 5723 5722 5722 5722 5721
5790 5791 5793 5794 5794 5794 5793 5793 5792 5790 5788 5785 5782 5780 5777 5774 5770 5767 5763 5760 5757 5753 5750 5747 5744 5741 5738 5736 5733 5731 5729 5727 5725 5723 5721 5720 5719 5718 5717 5717 5716 5716 5716 5716
5787 5790 5791 5793 5790 5790 5790 5788 5787 5785 5782 5780 5777 5774 5771 5767 5764 5760 5756 5753 5750 5747 5744 5741 5738 5735 5733 5730 5728 5725 5723 5721 5719 5717 5716 5714 5713 5712 5712 5712 5712 5711 5711 5711
5785 5786 5787 5788 5787 5786 5786 5784 5782 5780 5778 5775 5772 5768 5765 5761 5757 5753 5750 5747 5744 5741 5738 5735 5732 5730 5727 5725 5722 5720 5718 5716 5714 5712 5711 5709 5708 5708 5708 5707 5707 5707 5707 5706
5782 5784 5785 5785 5784 5783 5783 5780 5778 5775 5773 5770 5767 5763 5760 5755 5751 5747 5744 5741 5738 5736 5733 5730 5727 5725 5722 5720 5718 5716 5714 5712 5710 5708 5707 5706 5705 5705 5704 5704 5704 5703 5703 5703
5780 5781 5781 5781 5780 5780 5780 5778 5774 5771 5768 5765 5762 5759 5755 5750 5746 5743 5739 5736 5734 5731 5728 5725 5723 5721 5718 5716 5714 5712 5710 5709 5707 5705 5704 5703 5703 5702 5702 5701 5701 5701 5700 5700
5778 5779 5780 5777 5777 5777 5775 5772 5770 5767 5764 5761 5757 5753 5749 5745 5742 5739 5736 5732 5730 5727 5724 5722 5720 5718 5716 5714 5712 5710 5708 5706 5705 5704 5703 5702 5701 5700 5699 5699 5699 5699 5699 5699
5776 5777 5775 5774 5774 5773 5771 5769 5766 5763 5760 5756 5753 5749 5746 5742 5739 5736 5733 5730 5727 5724 5722 5720 5718 5716 5714 5712 5710 5708 5707 5705 5704 5703 5701 5700 5699 5699 5698 5698 5698 5698 5697 5697
5772 5773 5772 5772 5771 5769 5768 5766 5763 5760 5757 5753 5749 5746 5743 5740 5737 5734 5731 5728 5725 5722 5720 5718 5717 5715 5713 5711 5709 5708 5706 5705 5703 5702 5701 5700 5699 5698 5698 5697 5697 5697 5697 5697
5770 5771 5770 5769 5768 5767 5765 5763 5760 5757 5753 5750 5747 5744 5741 5738 5735 5732 5729 5726 5724 5722 5720 5718 5716 5715 5713 5711 5710 5708 5706 5705 5704 5703 5701 5700 5699 5699 5698 5698 5698 5698 5698 5697
5769 5769 5768 5767 5766 5764 5763 5760 5757 5754 5751 5748 5745 5742 5739 5737 5734 5731 5729 5726 5724 5722 5720 5718 5717 5715 5714 5712 5711 5709 5708 5707 5705 5704 5703 5702 5701 5701 5700 5700 5699 5699 5699 5699
5767 5766 5766 5765 5764 5762 5760 5758 5755 5752 5749 5746 5743 5741 5738 5736 5733 5731 5728 5726 5724 5723 5721 5719 5718 5717 5715 5714 5713 5711 5710 5709 5708 5707 5706 5705 5704 5704 5703 5703 5702 5702 5702 5701
5764 5764 5764 5763 5762 5760 5758 5756 5753 5750 5747 5745 5743 5740 5738 5736 5733 5731 5729 5727 5725 5724 5722 5721 5720 5719 5717 5716 5715 5714 5713 5712 5711 5710 5709 5708 5708 5707 5707 5706 5706 5705 5705 5705
5762 5762 5762 5761 5760 5758 5757 5754 5752 5749 5747 5744 5742 5740 5738 5736 5734 5732 5730 5728 5727 5726 5724 5723 5722 5721 5720 5719 5718 5717 5716 5715 5714 5713 5713 5712 5711 5711 5710 5710 5709 5709 5708 5708
5759 5759 5759 5759 5758 5757 5755 5753 5751 5749 5747 5745 5742 5740 5738 5736 5734 5733 5731 5730 5729 5728 5727 5726 5725 5724 5723 5723 5722 5721 5720 5719 5718 5718 5717 5716 5715 5715 5714 5714 5713 5713 5713 5712
5757 5757 5757 5757 5757 5756 5754 5753 5751 5749 5747 5745 5743 5741 5739 5737 5736 5735 5734 5733 5732 5731 5730 5730 5729 5728 5727 5726 5725 5725 5724 5723 5723 5722 5721 5720 5719 5719 5718 5718 5717 5717 5717 5716
5755 5756 5756 5756 5755 5755 5754 5752 5751 5749 5747 5745 5744 5742 5741 5739 5738 5737 5736 5736 5735 5734 5733 5733 5732 5732 5731 5730 5729 5729 5728 5727 5727 5726 5725 5725 5724 5723 5723 5722 5722 5721 5721 5720
5753 5754 5754 5754 5754 5754 5753 5752 5751 5749 5748 5747 5745 5744 5742 5741 5741 5740 5739 5738 5738 5737 5737 5736 5736 5735 5735 5734 5734 5733 5732 5731 5731 5730 5730 5729 5729 5728 5727 5727 5726 5726 5725 5724
5751 5751 5752 5752 5753 5753 5753 5752 5751 5750 5749 5748 5746 5745 5744 5744 5743 5742 5742 5741 5741 5741 5740 5740 5739 5739 5738 5738 5737 5737 5736 5735 5735 5734 5734 5733 5733 5732 5732 5731 5730 5730 5729 5728
5748 5749 5750 5751 5751 5752 5752 5751 5751 5750 5749 5748 5748 5747 5746 5746 5745 5745 5744 5744 5744 5743 5743 5742 5742 5742 5742 5741 5741 5740 5740 5739 5739 5738 5738 5737 5737 5736 5736 5735 5734 5733 5732 5731
5745 5746 5747 5748 5749 5750 5750 5750 5750 5750 5749 5749 5748 5748 5748 5747 5747 5747 5746 5746 5746 5745 5745 5745 5745 5745 5745 5744 5744 5743 5743 5743 5742 5742 5741 5741 5740 5740 5739 5738 5737 5736 5735 5734
5743 5744 5745 5746 5747 5748 5749 5749 5750 5749 5749 5749 5749 5749 5749 5749 5748 5748 5748 5748 5748 5747 5747 5748 5748 5748 5747 5747 5746 5746 5746 5746 5745 5745 5744 5744 5743 5743 5742 5741 5740 5739 5738 5737
5739 5741 5742 5744 5745 5747 5748 5748 5749 5749 5749 5749 5749 5749 5749 5749 5749 5749 5749 5749 5749 5749 5749 5750 5750 5750 5749 5749 5749 5748 5748 5748 5748 5747 5747 5746 5746 5745 5744 5744 5743 5742 5740 5739
5736 5737 5739 5741 5743 5744 5745 5746 5747 5748 5748 5748 5748 5749 5749 5749 5749 5750 5750 5750 5750 5750 5751 5751 5751 5751 5751 5751 5751 5750 5750 5750 5750 5749 5749 5748 5748 5747 5746 5745 5744 5743 5742 5740
5732 5734 5736 5737 5739 5741 5742 5743 5745 5745 5746 5747 5747 5747 5748 5749 5749 5750 5750 5750 5751 5751 5751 5751 5752 5752 5752 5752 5752 5752 5751 5751 5751 5750 5750 5749 5749 5748 5747 5746 5745 5744 5742 5741
5727 5729 5731 5733 5735 5737 5738 5740 5741 5743 5744 5744 5745 5746 5747 5747 5748 5749 5749 5750 5750 5751 5751 5751 5751 5752 5752 5752 5752 5752 5752 5752 5751 5751 5750 5750 5749 5748 5747 5746 5745 5744 5742 5741